Change the Weather History Date:

Thursday, October 18, 2012

  Actual Average Record
Temperature  
Mean Temperature 51 °F 46 °F  
Max Temperature 66 °F 57 °F 82 °F (1947)
Min Temperature 35 °F 36 °F 18 °F (1978)
Degree Days  
Heating Degree Days 14 19  
Month to date heating degree days 278 278  
Since 1 July heating degree days 560 512  
Cooling Degree Days 0 0  
Month to date cooling degree days 0 0  
Year to date cooling degree days 377 432  
Moisture  
Dew Point 37 °F    
Average Humidity 64    
Maximum Humidity 100    
Minimum Humidity 28    
Precipitation  
Precipitation 0.00 in 0.12 in 1.14 in (1948)
Month to date precipitation 1.28 2.30  
Year to date precipitation 28.25 31.45  
Sea Level Pressure  
Sea Level Pressure 30.02 in    
Wind  
Wind Speed - (North)    
Max Wind Speed -    
Max Gust Speed -    
T = Trace of Precipitation, MM = Missing Value Source: NWS Daily Summary

Daily Weather History Graph

Daily Weather History Graph

Search for Another Location

Airport or City:

Trip Planner

Search our weather history database for the weather conditions in past years. The results will help you decide how hot, cold, wet, or windy it might be!

Date:

Astronomy

Oct. 18, 2012 Rise Set
Actual Time 7:07 AM EDT 5:57 PM EDT
Civil Twilight 6:38 AM EDT 6:27 PM EDT
Nautical Twilight 6:04 AM EDT 7:01 PM EDT
Astronomical Twilight 5:30 AM EDT 7:34 PM EDT
Moon 10:54 AM EDT (10/18) 8:20 PM EDT (10/18)
Length of Visible Light 11h 49m
Length of Day
10h 50m
Waxing Crescent, 14% of the Moon is Illuminated
Oct 18
Waxing Crescent
Oct 21
First Quarter
Oct 29
Full
Nov 6
Last Quarter
Nov 13
New

Hourly Weather History & Observations

Time (EDT) Temp. Dew Point Humidity Pressure Visibility Wind Dir Wind Speed Gust Speed Precip Events Conditions
12:54 AM 41.0 °F 39.0 °F 93% 30.00 in - North - - N/A   Unknown
1:54 AM 39.9 °F 37.9 °F 93% 30.00 in - North - - N/A   Unknown
2:54 AM 39.0 °F 37.9 °F 96% 30.01 in - North - - N/A   Unknown
3:54 AM 39.0 °F 37.0 °F 93% 30.00 in - North - - N/A   Unknown
4:54 AM 37.0 °F 35.1 °F 93% 30.01 in - North - - N/A   Unknown
5:54 AM 36.0 °F 34.0 °F 93% 30.03 in - North - - N/A   Unknown
6:54 AM 35.1 °F 34.0 °F 96% 30.06 in - North - - N/A   Unknown
7:54 AM 36.0 °F 35.1 °F 97% 30.06 in - North - - N/A   Unknown
8:54 AM 37.9 °F 35.1 °F 89% 30.07 in - North - - N/A   Unknown
9:54 AM 42.1 °F 37.9 °F 85% 30.07 in - North - - N/A   Unknown
10:54 AM 46.9 °F 39.0 °F 74% 30.06 in - North - - N/A   Unknown
11:54 AM 54.0 °F 39.0 °F 57% 30.04 in - North - - N/A   Unknown
12:54 PM 61.0 °F 37.0 °F 41% 30.00 in - North - - N/A   Unknown
1:54 PM 64.9 °F 34.0 °F 32% 29.99 in - North - - N/A   Unknown
2:54 PM 66.0 °F 32.0 °F 28% 29.98 in - North - - N/A   Unknown
3:54 PM 64.0 °F 33.1 °F 31% 29.97 in - North - - N/A   Unknown
4:54 PM 64.0 °F 34.0 °F 33% 29.98 in - North - - N/A   Unknown
5:54 PM 61.0 °F 33.1 °F 35% 29.99 in - North - - N/A   Unknown
6:54 PM 59.0 °F 34.0 °F 39% 30.00 in - North - - N/A   Unknown
7:54 PM 55.0 °F 36.0 °F 49% 30.02 in - North - - N/A   Unknown
8:54 PM 52.0 °F 37.0 °F 57% 30.04 in - North - - N/A   Unknown
9:54 PM 53.1 °F 39.9 °F 61% 30.07 in - North - - N/A   Unknown
10:54 PM 51.1 °F 42.1 °F 71% 30.06 in - North - - N/A   Unknown
11:54 PM 50.0 °F 43.0 °F 77% 30.06 in - North - - N/A   Unknown